Theta_e
304 304 304 305 305 305 305 305 305 305 305 305 305 305 305 304 304 304 303 303 303 303 303 303 303 302 303 303 303 303 304 304 304 306 310 311 311 309 307 308 308 308 306 308 314 314 316 319 319 318 318 317 316 316 316 316 318 317 318 317 316 317 318 319 319 319 321 321 321 322 324 326 327 326 331 333 333 334 333 338 341 346 349 348 349 349 349 349
304 303 304 305 305 304 305 305 304 304 305 305 305 304 305 304 304 304 303 303 303 303 303 302 303 302 302 303 303 303 304 304 305 307 310 310 309 308 307 307 307 308 307 312 316 314 317 319 318 318 317 318 316 316 317 316 317 318 318 317 317 319 319 320 321 321 321 321 321 323 324 327 328 327 330 329 331 335 334 337 341 347 348 348 349 348 349 350
304 304 303 304 304 304 304 304 304 304 304 305 305 305 305 304 304 304 303 303 303 303 302 302 302 302 302 302 303 303 303 306 308 310 311 309 308 308 308 307 307 307 307 315 317 314 317 318 318 318 316 318 317 316 317 316 317 318 318 317 318 320 320 320 321 321 321 321 322 323 323 327 331 329 328 328 332 333 332 335 339 347 349 348 349 348 350 350
304 304 303 303 303 303 303 304 304 304 304 304 305 305 305 304 304 305 303 302 303 303 302 302 302 302 302 302 303 302 306 310 312 313 311 309 309 307 308 307 307 307 307 315 316 314 316 317 318 317 316 318 317 317 317 317 318 317 318 318 320 320 319 319 320 321 321 320 321 322 322 326 331 330 328 329 331 329 331 333 335 344 348 348 348 349 350 349
303 303 303 303 303 303 303 303 303 303 303 303 304 304 305 304 304 305 304 302 302 303 302 302 301 302 302 303 302 302 308 312 312 315 312 309 308 307 308 307 308 307 307 313 315 315 315 316 317 316 317 317 317 317 317 318 318 317 318 319 321 320 318 319 319 320 320 320 321 322 321 322 326 327 328 331 330 329 331 332 335 342 345 347 348 348 349 350
302 302 303 303 303 303 303 302 302 302 303 304 303 304 304 304 304 304 304 303 302 303 302 302 301 301 302 302 302 302 308 311 312 316 312 309 308 306 307 307 307 307 307 312 314 314 314 315 316 316 316 316 316 317 316 317 317 317 318 320 320 319 318 319 320 319 319 320 321 321 320 320 322 323 328 331 332 333 334 334 338 340 342 346 347 347 349 349
302 302 302 303 303 303 303 302 302 302 303 304 304 304 304 304 304 304 305 304 302 302 302 301 301 301 301 302 302 305 309 311 311 313 311 310 308 307 307 306 307 307 308 312 313 313 314 315 316 316 316 316 316 317 317 317 317 317 318 320 319 318 319 319 320 319 319 320 320 320 319 320 321 322 326 330 335 335 335 337 337 337 340 345 348 347 347 348
302 303 303 303 303 303 302 302 302 302 302 303 303 304 304 304 304 304 305 304 301 302 302 301 301 301 301 301 305 310 310 310 310 310 311 311 308 308 307 306 307 307 309 311 312 312 313 315 316 316 316 315 316 317 317 316 317 317 316 318 319 318 318 318 319 319 319 320 319 319 319 320 321 322 326 330 334 335 337 338 336 335 338 344 348 348 347 348
302 302 303 303 303 303 302 302 302 301 301 302 303 303 303 303 304 304 304 304 302 301 301 301 301 301 300 301 306 311 310 310 310 310 310 310 311 309 307 308 307 307 310 311 312 312 313 315 315 315 315 316 316 316 317 316 316 317 317 318 319 318 318 318 319 319 319 319 319 319 319 320 320 321 325 330 332 334 337 338 337 337 339 345 348 347 347 347
301 301 302 303 303 303 303 302 301 301 300 301 303 303 304 303 303 303 303 303 302 301 301 300 301 301 301 305 309 310 309 310 312 312 309 309 312 310 308 312 310 309 312 312 311 312 313 314 315 315 315 315 315 315 317 316 317 318 318 317 317 318 317 318 319 319 319 319 319 319 319 320 319 320 323 328 330 332 335 336 336 339 343 347 348 347 346 347
300 300 301 302 303 303 303 302 301 301 300 302 303 303 304 304 303 302 302 303 301 301 301 300 301 300 303 310 312 310 310 310 313 314 311 309 313 314 314 315 313 312 312 312 311 312 313 314 315 315 314 315 315 316 316 317 317 318 318 317 317 317 318 318 319 319 319 319 319 319 319 319 320 319 322 327 327 329 333 334 335 339 343 344 346 346 346 346
299 299 301 302 303 303 302 301 301 300 300 302 303 303 303 303 303 302 302 302 301 300 300 300 300 300 305 309 310 309 311 311 312 313 313 313 314 316 316 315 314 313 312 312 312 312 313 313 314 314 314 314 314 315 316 317 317 317 317 317 316 317 317 318 319 319 319 319 319 319 318 318 319 319 322 326 326 328 332 333 334 338 340 342 345 345 345 346
300 299 300 302 303 302 302 301 300 300 300 302 303 302 302 302 302 302 301 301 300 300 300 300 299 302 308 310 309 308 309 310 310 310 311 313 313 313 314 313 313 313 313 313 313 312 313 313 313 313 314 315 314 315 315 316 317 316 317 316 316 315 315 318 319 319 319 319 319 319 316 316 318 321 324 325 325 328 331 332 334 337 339 341 343 343 345 346
300 300 300 301 302 302 302 301 300 300 301 302 302 302 302 301 301 301 300 300 300 299 300 300 298 304 310 310 307 308 307 307 307 307 308 309 310 311 313 313 313 314 314 314 314 313 312 313 313 313 314 314 315 315 315 316 316 316 316 315 316 314 314 317 319 319 319 319 319 318 315 316 319 321 325 325 325 328 331 333 334 336 338 340 342 342 345 347
300 300 300 300 301 302 302 301 300 300 301 302 302 302 302 301 301 300 300 300 300 299 299 300 300 306 312 310 308 308 307 306 306 306 306 307 308 309 312 313 313 314 314 314 314 313 313 313 313 313 313 313 315 316 315 315 315 315 314 313 315 314 315 317 319 319 319 318 319 317 315 318 319 320 324 324 325 328 330 332 333 335 335 338 341 341 345 347
300 300 300 299 300 302 302 301 300 300 301 302 301 301 301 300 300 299 299 300 300 299 299 302 304 307 312 310 309 309 307 307 306 306 306 306 307 308 313 313 313 314 314 315 315 314 313 313 313 313 313 313 314 317 315 314 315 315 314 312 313 314 315 316 318 320 319 319 318 317 317 319 320 321 323 324 325 327 328 331 334 334 333 337 339 341 344 346
301 300 300 299 299 301 301 300 300 300 300 301 301 300 299 300 299 298 298 298 299 299 301 307 309 308 309 308 308 308 308 308 307 308 307 306 306 309 313 313 313 314 314 314 314 314 313 312 313 312 313 314 315 316 314 312 313 314 314 313 314 314 315 315 316 319 319 318 318 318 318 320 321 321 323 324 324 326 327 330 334 335 335 335 337 339 341 343
301 300 300 299 299 299 300 300 300 300 301 300 300 299 299 300 299 300 299 299 302 303 304 308 309 309 310 308 308 309 309 308 308 309 308 307 306 308 313 314 314 314 314 313 313 313 313 312 313 313 314 314 315 315 312 312 313 314 313 313 314 314 315 316 316 318 319 318 318 318 318 320 321 321 323 324 323 325 325 331 335 337 337 336 335 338 340 342
301 301 299 299 299 299 300 300 300 301 301 300 300 299 301 301 302 304 303 302 305 307 307 308 308 309 310 309 309 309 309 309 309 309 308 308 306 308 313 314 314 314 314 314 313 313 313 313 313 313 313 314 315 315 313 315 316 315 315 314 314 313 315 318 318 318 319 318 318 318 318 320 320 320 323 324 323 325 325 330 336 336 337 337 337 340 343 344
300 300 299 299 299 300 300 300 300 301 300 300 301 303 304 306 306 307 307 305 306 307 307 308 308 308 309 310 309 309 309 309 309 309 309 308 307 309 313 314 315 315 314 314 312 313 313 312 312 313 314 314 316 316 315 317 317 317 316 315 315 314 314 318 318 319 319 318 317 318 319 319 320 320 323 323 323 325 325 330 335 333 333 336 338 341 344 344
300 300 300 299 298 299 300 300 300 301 300 300 302 304 306 308 308 308 308 307 306 305 306 308 308 308 308 309 309 309 309 309 309 309 309 308 307 310 314 315 315 315 315 315 313 313 313 312 312 314 314 315 316 317 316 317 317 317 316 315 315 315 315 318 319 318 318 318 317 319 319 319 320 321 323 324 324 325 326 330 333 332 332 336 338 340 342 343
301 300 300 299 298 299 300 300 300 300 300 301 302 303 306 307 307 308 309 309 308 307 306 306 307 308 308 308 309 308 309 309 309 310 310 309 307 310 314 314 315 315 315 315 314 313 313 312 313 314 315 315 316 317 317 318 318 317 317 315 314 315 316 317 319 318 318 318 317 319 318 319 321 321 323 324 325 325 326 329 330 330 332 336 338 339 341 342
301 301 300 300 298 298 300 300 300 300 300 302 303 303 305 305 306 307 307 308 309 308 308 306 306 307 308 308 308 307 308 310 310 311 311 309 308 310 314 314 314 315 314 315 315 314 312 312 313 314 315 315 315 316 317 318 318 318 317 314 313 315 315 314 317 318 318 318 319 319 318 320 323 322 322 323 326 328 328 330 332 332 331 334 336 336 337 340
301 301 300 300 298 298 300 300 300 300 301 302 303 304 304 304 305 306 307 308 308 308 309 308 306 306 307 307 307 307 308 309 310 312 311 309 309 310 313 315 313 314 315 315 316 315 314 314 314 314 314 315 315 316 317 317 317 318 318 315 314 315 315 315 317 318 318 318 319 319 316 318 322 322 322 325 329 330 329 332 334 334 333 333 335 334 334 337
301 300 300 300 298 298 299 299 300 301 302 303 303 303 304 304 305 306 307 308 308 308 308 309 308 306 306 305 306 306 307 308 308 311 311 310 310 310 313 315 314 314 315 315 316 315 315 316 314 314 314 314 315 315 316 317 317 317 316 316 316 316 316 317 317 317 316 315 317 318 313 314 320 321 322 325 326 327 328 330 332 334 336 336 338 339 337 337
302 300 300 299 298 299 299 300 302 302 302 303 303 303 303 304 305 305 307 308 309 309 308 309 309 307 307 305 306 307 306 307 307 310 312 310 310 311 313 315 314 315 315 315 316 316 316 316 315 313 313 314 314 315 316 317 316 314 315 317 317 317 317 317 317 315 313 313 317 319 314 313 318 319 322 324 324 325 327 329 330 331 332 335 339 341 341 340
301 300 300 299 298 298 300 302 303 302 303 303 303 304 304 305 305 305 309 309 308 310 309 309 309 308 308 307 307 307 306 307 307 308 311 311 310 311 313 315 314 314 316 316 315 316 316 316 315 314 313 313 313 316 317 317 314 314 316 317 316 317 317 316 316 315 315 315 317 319 316 313 315 318 322 324 324 327 329 331 332 330 331 335 339 341 342 341
301 300 300 299 299 298 300 303 303 302 303 303 303 304 304 305 305 306 310 311 309 310 310 309 309 309 309 309 308 307 308 308 307 307 310 311 310 311 312 314 314 314 315 315 314 315 315 315 315 314 314 314 315 317 317 316 314 315 317 317 316 318 317 317 317 315 316 315 314 315 316 313 313 319 323 324 325 328 330 332 333 334 337 339 340 340 340 340
301 300 300 299 298 298 300 302 302 302 303 303 303 304 304 305 306 308 310 313 311 310 311 309 309 309 309 310 309 308 309 309 308 308 310 311 311 311 312 314 315 314 315 315 314 315 314 315 315 315 314 315 315 316 316 315 314 316 318 316 317 317 317 317 317 315 315 314 313 314 315 312 312 318 323 324 325 328 331 332 332 335 337 337 338 338 338 337
301 300 300 299 298 299 300 301 302 302 302 302 303 304 305 305 307 308 309 313 312 310 311 309 308 309 310 310 308 308 309 310 310 309 310 312 311 311 312 313 315 314 314 315 314 315 315 315 316 316 315 315 314 315 315 315 315 316 317 316 316 316 317 317 316 315 313 313 313 315 316 313 314 320 323 323 325 329 332 331 332 334 335 336 337 336 336 335
301 300 300 298 299 300 301 302 302 302 301 302 303 304 305 307 308 309 310 313 311 310 310 309 309 309 310 309 308 308 308 310 311 309 310 311 311 311 312 312 314 315 314 314 314 315 314 314 315 316 315 315 314 315 316 316 315 316 317 316 314 313 314 314 315 315 313 313 313 315 317 314 314 321 324 323 325 329 331 331 331 333 334 334 334 334 334 333
301 300 299 298 299 301 301 302 302 301 301 302 304 305 306 309 309 310 311 311 311 311 309 310 309 310 311 309 308 308 308 310 311 310 310 311 311 311 312 312 313 314 314 314 314 314 314 314 315 315 315 315 314 314 315 315 315 315 316 315 312 312 313 313 313 314 313 313 313 316 317 313 314 320 324 328 329 329 332 331 330 333 333 333 332 332 332 332
300 300 299 298 299 301 301 302 302 302 302 303 304 306 307 309 310 310 311 310 312 312 310 311 310 310 310 309 309 309 308 310 311 310 310 311 311 311 311 313 313 314 314 314 313 312 312 314 315 314 314 315 315 313 313 313 314 314 314 314 312 311 313 314 313 313 314 314 314 317 315 314 321 328 328 330 331 331 332 330 330 332 332 332 331 331 330 329
300 299 298 298 299 300 301 302 302 302 302 303 305 307 309 310 310 309 310 310 312 312 311 311 310 310 310 310 310 309 308 310 311 311 311 311 311 311 312 312 313 314 314 314 313 311 311 314 315 314 314 314 315 314 315 315 314 314 315 315 313 312 313 314 313 313 313 313 315 316 314 317 326 332 330 330 331 331 331 330 330 332 331 331 330 329 328 327
300 298 298 299 300 300 301 301 301 301 302 304 306 307 309 311 310 309 310 310 311 312 312 312 311 310 310 310 311 310 309 310 311 311 311 311 311 312 312 312 313 314 314 314 314 312 311 313 315 315 315 315 315 315 317 316 313 315 316 314 313 313 314 313 314 315 314 314 314 315 320 324 328 329 329 330 331 330 331 331 330 330 330 329 328 327 326 326
299 299 299 300 301 301 301 301 301 301 302 305 306 308 310 310 309 309 310 310 311 311 311 311 311 310 310 311 311 310 309 311 312 312 312 312 311 312 312 312 313 313 314 315 314 313 312 313 315 315 315 315 315 316 317 315 313 314 313 312 314 316 316 314 314 316 315 315 314 317 327 331 330 330 330 328 329 330 330 330 329 329 329 328 326 325 325 324
300 300 301 301 301 301 301 301 301 301 303 305 307 309 309 309 309 309 310 310 310 311 311 311 311 310 311 311 310 310 309 310 312 312 312 312 312 312 312 312 313 313 314 315 315 315 314 313 315 314 314 315 316 316 316 315 315 313 312 313 315 316 317 314 314 315 314 315 314 316 327 331 330 332 331 328 329 330 329 329 329 328 327 326 325 324 324 324
300 301 301 301 301 301 301 301 301 301 304 306 307 309 308 308 309 309 310 310 310 310 311 312 313 311 311 311 310 311 309 309 311 312 312 312 312 313 312 312 314 313 314 315 315 316 315 313 314 315 314 315 315 315 315 315 316 315 314 315 316 314 314 314 314 315 314 316 316 315 325 330 327 328 331 330 330 330 329 328 327 327 326 325 324 323 323 323
300 301 302 302 302 302 302 301 301 303 305 306 307 309 308 308 309 309 310 310 310 310 311 313 314 312 311 311 311 311 309 310 312 312 312 312 312 313 313 313 314 314 315 315 315 316 315 314 314 315 315 314 315 314 313 314 315 316 316 315 315 314 313 314 314 315 314 315 317 317 320 324 323 326 331 330 329 329 328 328 326 326 325 324 324 323 323 322
301 302 304 304 303 303 302 301 302 303 305 306 307 308 308 308 309 309 309 309 310 309 310 313 314 312 312 312 311 311 310 310 312 312 312 313 312 313 313 313 313 313 315 314 314 315 315 315 313 315 314 313 314 313 313 314 313 314 314 313 314 315 315 316 314 315 314 313 317 318 317 321 325 328 330 329 329 329 328 328 327 326 325 324 323 323 322 321
301 303 305 305 304 303 302 302 303 304 304 306 306 307 307 308 308 309 309 309 309 309 310 311 313 313 312 312 312 311 311 310 311 312 312 312 313 313 313 313 314 314 314 314 314 315 315 315 314 314 313 312 313 314 314 315 314 314 314 313 314 314 314 315 314 314 314 313 315 316 317 324 330 330 328 329 329 329 328 328 326 325 324 323 322 321 321 320
303 304 305 305 304 303 302 303 304 304 304 305 306 307 307 308 307 308 309 309 308 309 309 310 311 312 311 312 313 312 311 311 311 312 312 313 314 314 314 314 314 314 314 313 314 315 315 315 314 314 314 313 314 315 314 315 315 315 315 315 316 315 313 313 313 315 314 313 315 313 317 327 331 330 329 329 329 329 328 326 324 323 322 321 321 320 320 319
305 305 304 304 304 303 303 304 303 303 304 305 306 307 308 308 308 308 308 308 308 308 309 310 311 311 312 312 313 312 311 312 311 311 312 313 314 315 315 315 314 314 314 313 314 315 315 315 313 313 313 313 314 314 314 315 315 314 314 315 315 315 315 314 315 316 314 314 314 313 320 329 330 329 331 330 329 328 326 325 323 322 321 321 320 319 319 319
305 305 304 304 303 303 304 305 303 303 304 305 306 307 307 308 308 307 307 307 308 309 309 310 311 311 312 312 312 312 312 312 311 311 313 313 315 316 315 315 314 314 313 314 314 315 315 315 314 313 314 314 313 314 313 313 315 315 314 315 314 315 317 316 316 316 314 315 314 313 322 329 328 328 330 328 326 326 325 324 322 321 321 320 320 319 319 318
304 305 304 303 302 303 305 306 305 305 305 305 306 307 308 308 307 308 308 307 309 309 309 310 311 311 312 311 312 312 312 312 312 312 312 314 317 317 315 315 315 314 314 315 315 315 315 315 314 313 314 314 313 313 313 313 315 315 315 314 314 316 316 315 315 314 314 316 314 315 323 329 328 328 328 327 325 324 324 323 321 320 320 320 319 319 318 318
303 304 304 303 303 304 306 306 307 307 306 305 306 307 307 307 307 307 307 307 309 309 309 309 311 311 311 311 311 312 312 313 313 312 312 315 317 316 315 316 315 315 317 316 316 316 315 315 315 315 315 315 314 315 315 314 314 315 315 315 314 315 316 316 315 313 314 315 313 318 327 329 327 328 328 327 325 324 323 322 321 320 319 319 319 318 317 317
303 305 304 303 303 304 305 306 306 306 306 306 306 306 307 307 307 307 306 307 308 309 309 309 310 311 311 312 313 313 313 313 313 313 314 316 317 316 316 316 316 318 319 316 316 317 315 315 319 321 319 318 318 319 317 314 315 315 315 315 315 315 317 317 315 315 317 314 314 323 330 329 328 329 327 325 324 323 322 322 320 319 319 318 318 317 317 317
304 306 306 304 303 304 304 304 305 306 306 307 306 307 307 307 307 308 307 308 308 309 310 310 311 311 311 312 313 315 315 313 314 315 315 316 316 317 318 316 315 319 319 315 315 317 315 316 320 322 320 319 320 321 319 315 315 316 315 315 316 315 317 318 317 317 316 314 318 328 332 329 330 329 325 323 323 322 322 321 320 319 318 318 317 317 317 316
305 306 307 306 305 306 304 304 306 306 306 307 306 307 308 308 308 308 308 309 311 310 310 311 311 311 311 311 313 316 317 315 314 315 315 316 316 317 318 317 316 318 317 314 316 316 314 317 320 321 320 320 320 320 320 317 315 315 315 316 316 316 317 317 316 319 320 319 324 330 330 330 329 326 323 323 322 322 321 320 319 319 319 318 318 317 317 316
305 305 307 306 306 308 306 305 306 306 306 307 307 307 308 309 309 307 307 310 312 312 311 311 311 311 312 313 314 316 317 316 316 316 316 317 316 317 319 318 317 317 316 315 318 318 316 318 321 321 320 322 323 321 321 320 318 318 317 316 317 318 317 317 320 325 327 328 329 330 329 329 328 325 323 322 321 320 320 319 319 319 318 318 318 317 317 316
304 304 305 305 306 308 307 306 307 306 306 307 307 307 308 310 310 309 309 311 312 312 311 311 312 313 313 315 315 316 316 316 317 316 316 318 317 317 319 320 319 318 317 316 318 319 317 318 321 321 318 321 324 321 320 321 321 323 324 323 322 320 320 323 327 328 328 330 331 330 329 325 323 322 321 320 320 320 319 319 318 318 318 318 317 317 317 316
304 305 306 306 307 307 307 306 307 307 307 308 308 308 309 310 311 312 312 312 311 312 311 312 314 315 315 316 317 316 317 317 317 317 316 316 318 319 319 319 319 317 316 317 318 318 317 317 320 320 317 320 323 323 322 322 324 326 325 325 326 323 323 328 330 328 328 329 329 329 326 321 319 319 318 318 319 319 318 318 317 317 318 318 317 317 316 316
Wind_Speed
10 10 9 10 10 9 10 11 12 12 12 12 13 13 12 12 12 11 10 12 12 11 11 11 11 11 11 12 12 12 12 13 13 13 16 16 12 11 12 9 6 8 10 7 7 12 13 14 14 13 12 11 12 13 11 11 11 8 7 7 7 8 6 4 6 4 2 8 4 5 7 8 11 13 9 9 9 9 14 12 9 10 16 20 20 20 19 18
11 11 9 9 10 10 11 12 12 12 12 11 12 12 12 11 12 11 10 11 11 11 11 10 11 11 10 11 11 12 13 13 15 17 19 18 15 13 12 12 10 8 10 10 11 14 14 14 14 13 13 12 12 11 10 12 12 9 7 6 7 7 3 1 2 3 4 5 3 5 5 5 9 14 11 13 12 11 12 15 12 13 19 19 20 19 17 17
11 10 9 10 11 11 12 12 13 13 12 10 10 11 11 10 10 10 10 10 10 10 10 9 10 9 10 10 9 11 11 12 17 17 17 18 16 15 14 13 13 12 10 10 13 14 13 12 13 13 14 12 12 11 9 11 11 11 9 6 8 6 0 2 3 4 4 2 2 3 4 4 7 10 12 13 10 12 12 13 13 12 19 19 19 18 17 17
10 11 11 11 12 12 13 13 13 13 12 11 10 10 11 10 10 9 10 10 10 10 8 8 9 8 9 8 8 8 9 13 13 11 14 16 15 15 16 14 15 15 13 11 12 14 12 12 12 14 14 12 12 11 9 10 10 10 10 8 6 2 1 4 4 2 3 1 2 2 5 6 7 6 9 12 10 11 11 14 15 13 18 20 20 18 17 17
11 12 13 13 12 13 14 15 14 14 13 12 11 10 11 10 10 10 9 9 10 9 7 7 7 7 7 6 6 5 5 7 2 10 12 12 12 13 15 16 16 16 14 13 13 14 14 13 13 15 14 11 11 11 11 13 11 9 10 13 8 2 3 6 7 4 2 2 1 2 4 4 8 9 9 13 8 5 7 10 12 14 15 17 20 19 18 17
11 12 12 13 13 13 15 16 15 14 11 11 11 11 11 10 10 10 9 9 9 9 6 6 6 5 6 5 5 3 6 5 5 5 8 8 10 11 11 14 17 17 16 15 15 15 16 16 15 16 14 12 10 10 11 14 13 8 8 13 11 6 5 5 7 5 3 4 2 1 1 2 8 10 11 10 4 5 5 9 13 16 13 14 19 19 18 17
10 11 12 12 13 13 14 15 15 12 10 10 11 11 11 11 10 9 9 9 10 9 6 6 4 5 5 4 5 6 12 14 4 5 8 7 10 10 8 8 13 18 18 17 18 17 18 18 18 17 13 11 10 10 12 14 15 11 8 10 11 10 8 4 6 6 5 4 2 2 1 7 8 7 12 8 7 7 7 11 13 13 12 13 18 18 17 16
11 11 12 12 13 14 15 15 15 13 12 12 11 11 12 11 11 10 9 10 10 9 7 5 4 4 5 3 5 9 16 19 11 7 8 8 8 7 5 4 7 16 20 20 20 19 19 19 20 18 12 11 11 11 12 12 13 13 11 8 8 10 10 7 6 6 7 5 3 4 4 8 5 4 12 9 9 10 11 15 15 13 13 15 17 18 16 15
12 12 12 12 13 14 15 15 15 15 15 12 10 11 12 12 12 11 11 10 10 9 7 6 6 5 5 4 5 10 12 12 7 8 11 8 8 9 6 5 5 12 19 20 20 20 19 20 21 18 14 12 12 12 12 10 9 12 14 12 7 9 10 9 9 9 8 7 5 6 6 7 5 5 11 12 11 12 13 16 19 17 18 17 17 17 15 14
13 13 12 12 13 14 14 15 16 16 16 12 10 11 12 12 13 12 11 10 10 10 8 7 6 7 6 4 8 9 7 7 3 7 14 11 9 11 9 7 7 11 18 20 21 22 21 19 19 19 16 14 12 11 12 11 6 6 12 15 11 9 10 10 11 12 11 9 7 8 7 7 10 10 8 13 14 13 15 15 17 18 17 16 16 16 14 14
14 14 13 12 13 13 13 16 18 18 16 12 11 12 12 12 13 14 12 11 11 10 9 8 7 9 7 6 12 9 4 6 3 3 10 9 8 10 9 10 11 13 17 19 21 22 21 19 16 16 14 11 12 11 12 14 10 5 7 12 13 11 9 11 12 13 11 9 11 10 7 9 12 11 8 16 16 15 16 15 16 15 14 14 15 15 13 13
15 14 13 12 13 14 14 16 18 18 14 12 12 14 13 14 14 14 13 11 10 10 10 8 8 9 5 10 19 15 4 3 3 3 4 4 5 8 10 12 12 14 16 18 21 21 20 19 16 16 12 8 11 9 9 16 15 9 7 9 12 12 10 13 13 13 12 11 14 12 7 9 12 11 9 17 17 15 16 15 15 15 13 12 13 14 13 13
15 15 13 12 13 15 16 16 16 14 12 12 13 14 15 15 14 14 13 11 10 10 9 8 9 7 5 14 19 17 12 8 8 8 6 4 4 5 8 11 12 14 15 16 18 18 20 17 15 18 13 9 10 5 4 13 16 11 9 9 10 11 11 15 15 15 15 12 15 14 8 9 13 12 12 16 16 16 16 15 15 14 12 11 11 13 13 13
16 15 14 13 14 14 16 16 15 12 11 13 15 15 15 15 15 13 13 12 11 10 8 8 8 5 8 17 15 13 16 15 14 14 12 9 7 6 6 9 11 13 14 14 14 16 18 15 13 17 16 14 12 4 3 11 13 10 9 9 8 8 10 16 18 17 16 11 16 14 8 9 15 15 15 16 16 16 15 15 16 14 12 11 11 12 13 13
16 15 15 15 14 14 16 16 14 12 13 14 16 17 16 15 14 13 13 12 11 10 7 6 6 4 11 18 16 15 18 18 18 18 15 13 12 10 8 9 11 12 12 12 12 13 14 13 13 15 15 17 14 6 7 9 9 9 9 8 9 8 8 17 20 18 15 12 16 16 9 10 17 18 18 17 16 16 16 16 16 16 12 9 10 11 12 14
15 16 16 17 15 14 16 16 14 13 14 16 17 17 16 15 13 12 12 12 11 8 6 4 4 6 10 11 11 14 16 18 19 18 16 16 14 11 9 10 11 12 13 12 10 11 12 12 15 16 15 14 12 8 8 8 8 9 10 8 10 10 8 15 19 20 19 13 15 17 12 9 15 18 19 17 17 17 16 16 17 16 14 12 11 11 12 14
15 16 16 16 16 15 17 17 14 13 15 17 18 17 14 13 11 10 10 10 8 5 6 4 4 8 11 8 7 14 16 16 15 15 17 17 16 12 10 12 13 13 14 13 10 11 14 14 14 14 13 11 10 9 8 9 9 9 9 8 10 13 10 12 16 19 21 15 14 19 18 9 14 18 18 17 16 16 16 17 19 14 14 15 13 13 13 14
14 14 15 15 15 15 16 15 13 12 15 17 15 11 6 6 6 6 7 7 5 2 4 7 6 6 12 15 14 12 15 16 13 14 16 17 17 14 13 14 14 15 15 13 13 14 15 15 13 10 10 11 10 11 10 9 10 10 11 9 9 13 12 12 15 17 21 17 14 18 20 9 13 15 15 16 15 15 15 15 22 17 15 16 15 13 14 14
13 13 14 14 14 14 13 13 13 13 16 16 10 6 3 3 2 5 7 9 12 8 4 11 18 8 3 12 19 8 7 14 13 13 15 18 19 16 15 15 16 18 16 12 13 17 15 13 13 10 10 12 12 13 12 11 12 12 13 11 10 11 12 11 14 18 20 16 14 17 18 9 12 11 13 15 15 14 16 16 21 18 14 14 14 13 13 14
15 13 13 13 13 13 12 12 12 13 15 12 6 4 4 4 4 8 13 16 20 18 10 12 26 22 6 3 14 9 6 10 12 14 16 19 20 18 18 17 17 17 15 11 12 17 16 11 12 12 12 14 15 17 17 15 12 12 13 13 11 9 11 12 14 19 20 14 13 18 19 12 13 12 13 14 14 13 15 17 18 14 12 12 14 13 12 14
16 15 13 14 13 12 12 11 12 13 14 10 6 8 9 8 5 4 11 19 25 26 22 14 18 25 16 2 6 6 8 11 13 16 17 20 22 19 19 19 16 13 13 14 13 14 15 11 12 15 15 16 17 17 18 17 12 10 11 12 11 9 12 12 11 17 20 14 12 17 19 13 14 13 12 13 12 11 13 15 16 13 13 12 14 14 12 13
16 15 14 14 14 12 11 12 12 13 14 9 9 13 11 7 6 4 3 12 20 26 29 24 19 22 21 12 6 5 9 13 15 17 18 23 24 19 19 19 14 11 14 15 12 11 12 12 15 17 16 16 16 16 17 16 11 10 9 10 10 9 11 10 11 14 16 11 11 16 17 11 12 11 12 13 13 12 12 13 17 17 14 12 15 14 12 13
15 15 15 16 14 12 11 12 13 13 12 9 11 14 11 8 7 5 7 11 14 20 27 28 26 25 23 20 13 9 11 14 15 19 21 23 26 23 19 17 15 14 15 15 13 11 10 12 16 17 16 17 16 16 18 14 10 10 9 9 9 11 13 10 12 14 15 11 11 16 14 9 10 9 10 12 11 11 11 10 13 17 16 14 15 14 13 13
15 14 16 17 14 11 11 12 13 13 11 11 14 14 11 8 5 5 9 12 11 15 23 26 28 28 26 22 16 14 15 14 14 20 24 24 26 24 18 18 17 14 15 17 17 14 10 12 18 18 17 18 16 17 18 12 8 11 12 10 9 12 15 9 12 12 13 13 14 13 13 9 11 12 9 9 8 9 12 11 11 14 17 15 15 16 15 13
15 14 15 16 12 10 10 12 11 10 10 11 14 14 11 8 4 4 7 9 10 12 19 23 24 25 27 22 18 19 16 15 17 18 24 26 26 21 17 18 16 13 16 20 18 14 12 13 18 19 17 19 17 16 17 13 9 11 13 13 12 13 13 11 16 13 9 12 15 12 12 10 11 14 12 10 10 11 12 13 12 14 16 15 14 15 15 14
15 14 15 14 10 7 7 8 5 5 9 11 9 8 8 6 3 4 4 6 8 10 16 20 18 18 24 23 21 20 14 16 20 17 21 26 26 21 15 14 13 14 17 18 13 8 11 14 16 17 18 20 19 14 16 16 10 9 12 16 16 13 13 13 17 14 8 11 14 12 11 8 10 14 15 14 13 13 11 11 13 15 17 16 14 14 15 15
14 14 14 12 9 6 6 5 2 4 6 7 7 6 8 6 3 4 4 5 6 9 15 18 15 14 22 25 25 20 10 13 20 20 21 23 26 24 16 13 12 13 14 12 10 8 12 15 16 18 19 17 15 12 15 18 12 7 12 17 16 13 14 14 14 12 8 10 13 15 14 9 8 12 15 16 14 14 12 9 10 13 14 13 13 13 14 14
16 15 13 11 8 8 10 7 4 6 5 6 8 6 5 4 3 3 4 5 5 10 13 15 12 11 18 25 29 23 14 16 19 20 23 23 26 24 17 15 15 14 16 12 10 10 13 16 16 17 16 12 13 13 15 18 14 9 12 16 13 11 13 15 13 10 10 10 11 16 16 10 7 10 13 16 15 14 14 12 11 13 14 15 15 15 16 15
16 15 13 11 8 9 11 8 8 8 4 4 7 6 5 4 4 4 5 4 6 9 11 13 11 12 17 22 27 27 21 17 16 20 25 23 26 23 15 17 18 15 17 16 11 10 13 17 16 16 13 11 14 15 16 17 15 14 13 15 14 10 10 10 11 10 10 11 11 15 17 11 7 11 12 13 15 14 13 11 11 14 16 15 15 16 16 15
15 13 12 10 7 8 7 8 13 11 5 6 7 6 5 5 5 6 5 5 6 9 11 13 13 16 20 19 20 25 22 16 16 24 26 24 26 24 17 19 19 13 15 17 15 12 12 13 13 14 13 13 15 16 17 18 18 17 11 12 14 12 9 8 9 10 9 11 12 15 18 14 8 8 11 12 13 14 12 11 12 14 15 14 14 14 14 14
14 12 11 9 7 7 6 8 12 11 9 9 8 7 6 4 5 6 6 5 6 9 11 11 15 18 20 18 15 20 20 15 17 23 20 18 21 21 16 15 15 12 13 13 14 16 14 13 11 14 17 16 15 16 17 18 20 17 9 10 12 10 9 8 7 9 9 10 13 15 18 18 10 7 10 11 14 17 13 12 14 15 16 14 13 14 14 14
14 12 11 9 8 9 9 6 5 10 12 10 9 9 7 4 5 7 6 6 5 8 10 13 16 16 19 19 16 19 19 14 16 19 16 15 15 15 14 12 11 12 12 12 13 14 14 13 13 15 19 20 14 12 14 15 17 16 11 11 12 9 9 9 9 9 9 9 12 16 18 16 8 4 11 12 12 15 14 13 16 17 18 16 15 16 15 15
13 12 12 10 9 11 13 7 5 10 12 9 9 9 6 4 7 10 8 6 3 3 7 13 15 16 18 18 16 19 19 15 16 17 17 16 14 15 17 16 17 15 11 13 13 12 11 12 15 15 16 19 17 12 12 12 14 15 13 12 11 10 9 10 10 9 9 9 12 17 17 11 3 5 13 15 13 14 14 14 16 18 20 19 19 18 17 15
12 11 10 8 10 12 13 9 8 10 8 7 9 8 7 6 8 11 9 6 5 3 6 11 15 17 18 15 15 18 17 14 18 18 16 17 14 13 16 18 22 17 11 12 12 12 12 11 15 15 12 17 20 16 12 12 14 14 13 12 11 10 8 9 9 9 10 9 10 15 13 7 7 8 11 14 17 18 16 15 17 20 20 19 19 18 16 15
12 11 8 8 10 12 13 11 11 11 9 9 8 6 8 8 8 10 6 3 7 8 7 8 13 15 15 14 15 20 16 13 19 18 15 15 13 13 14 16 21 19 12 11 9 11 14 11 14 17 14 16 18 16 15 15 13 12 12 12 11 11 9 8 8 6 8 9 9 9 3 4 7 8 10 13 16 18 18 17 18 20 19 18 17 16 15 14
9 8 8 9 11 12 13 13 12 12 11 11 8 7 10 8 5 5 1 1 5 8 7 7 11 12 13 12 14 21 19 14 17 16 13 16 16 16 16 14 19 21 15 11 8 9 12 10 15 19 17 18 18 16 17 16 11 9 12 12 11 13 11 8 7 5 5 9 9 7 5 6 6 6 9 13 14 16 17 17 17 18 18 17 16 15 15 14
6 6 8 11 12 12 14 14 13 14 12 11 8 8 9 8 5 2 1 2 3 5 6 8 10 11 12 12 12 19 19 15 17 15 12 15 15 17 19 16 20 23 18 13 9 9 11 9 14 20 17 19 21 20 18 17 14 9 11 12 11 12 12 8 8 6 8 9 9 10 9 9 8 6 8 13 14 15 16 15 16 17 17 17 16 15 15 14
5 6 9 11 11 12 15 15 15 16 13 10 9 9 8 7 5 1 0 3 3 3 5 5 6 10 13 13 12 18 19 14 15 15 12 13 13 17 20 16 19 23 22 18 10 9 11 8 12 20 18 17 20 19 16 18 21 15 10 11 10 11 12 9 7 9 10 9 8 11 11 8 8 7 11 15 16 16 15 14 14 15 17 17 17 16 15 14
6 6 8 9 10 13 16 16 17 17 12 9 9 9 8 7 10 6 3 2 4 4 2 2 3 8 10 11 12 17 19 15 14 13 12 11 11 17 20 15 17 22 24 21 11 7 10 7 8 16 19 16 14 13 12 15 19 16 12 13 11 10 10 9 8 8 9 9 8 10 12 9 8 11 16 18 18 18 16 14 13 14 18 17 16 15 14 13
8 6 6 9 12 13 16 17 16 14 10 9 9 8 8 8 11 10 5 2 6 4 1 2 5 5 4 8 11 14 16 16 15 12 11 11 10 15 19 16 15 19 23 23 14 8 8 7 6 12 17 15 11 12 14 14 15 13 12 14 12 9 9 9 9 8 9 10 8 9 10 5 3 9 17 19 19 18 16 14 14 16 19 17 16 15 13 12
9 6 5 12 13 14 17 15 12 10 8 9 10 10 9 6 8 9 6 4 6 4 1 3 6 3 1 6 11 14 14 14 15 12 9 12 11 10 15 17 15 17 20 19 14 9 7 7 7 9 12 14 12 15 17 17 16 13 10 11 12 11 10 10 10 9 9 9 8 8 8 3 3 3 12 16 16 17 18 17 16 19 19 18 16 14 13 13
8 4 6 12 14 17 19 11 8 9 8 8 10 10 8 5 7 9 7 8 8 6 3 3 5 4 2 5 7 10 13 12 14 13 9 12 11 7 12 19 19 18 16 14 14 12 7 6 8 9 11 14 15 17 18 19 19 16 12 12 12 12 11 10 10 10 9 9 9 9 6 3 2 2 9 14 16 19 21 20 19 19 19 18 16 14 13 12
6 1 6 10 14 19 16 8 7 9 7 9 11 11 10 7 7 8 8 9 9 6 4 3 3 5 5 5 5 8 12 12 14 15 10 11 12 10 13 18 18 18 15 12 13 12 7 6 9 10 9 12 15 17 18 19 18 15 13 14 14 13 13 12 10 9 8 9 10 8 6 4 1 4 11 17 21 22 20 20 20 19 18 17 16 14 13 12
5 4 6 8 14 17 12 6 7 9 8 10 11 9 9 9 9 10 9 7 6 4 3 4 3 4 5 6 6 7 9 10 12 14 12 11 10 12 16 18 15 14 13 11 11 11 8 8 9 9 8 10 12 14 15 17 15 11 12 16 17 17 18 15 10 8 8 10 12 7 4 4 4 7 14 20 21 20 19 20 21 19 18 17 16 14 13 13
3 5 7 10 14 15 12 8 5 5 8 11 10 8 9 9 10 11 8 7 8 5 3 3 5 6 6 7 8 7 9 9 10 13 14 11 5 8 15 17 14 14 14 14 15 12 8 8 10 9 10 12 12 12 12 12 11 11 14 19 20 21 22 16 10 8 7 10 12 7 5 7 7 10 15 17 18 18 19 20 21 19 18 17 16 15 14 13
2 2 6 11 13 14 15 13 9 7 8 10 8 8 10 9 10 11 9 9 8 4 4 4 5 6 8 8 9 9 10 11 10 10 12 10 6 8 16 16 16 15 9 10 15 11 6 9 9 7 7 8 8 11 13 13 12 14 17 21 22 22 21 16 10 9 9 9 10 9 14 15 12 14 16 16 17 18 18 20 20 19 18 17 16 15 14 13
3 2 6 9 9 11 12 13 11 8 7 8 7 8 11 11 9 8 7 6 3 2 5 6 6 7 7 8 8 8 11 13 12 11 10 9 8 9 13 14 15 11 7 8 14 9 6 8 6 2 4 3 4 7 15 19 17 17 19 21 22 22 21 18 12 10 10 8 7 12 21 20 17 18 18 18 17 17 18 19 20 18 18 17 16 15 14 13
3 3 7 10 7 7 8 10 11 9 8 7 7 7 10 12 10 7 4 2 2 2 4 5 7 10 10 8 7 7 11 13 13 12 9 8 7 6 9 11 13 10 7 11 13 8 7 6 4 3 6 3 4 7 11 17 18 18 19 19 20 22 21 18 15 13 12 7 5 13 19 19 18 18 17 17 18 18 20 21 20 19 18 17 16 16 15 14
4 5 4 7 6 5 8 10 10 10 9 7 7 7 7 9 10 7 2 0 2 3 5 6 9 10 10 10 7 7 11 11 11 12 11 9 7 5 7 11 14 14 13 12 11 9 8 4 5 5 5 4 4 4 6 13 17 18 18 15 15 18 17 16 12 7 6 6 11 14 13 14 15 16 16 18 21 23 22 21 20 20 19 18 17 16 15 14
3 5 4 6 7 5 8 9 8 8 8 7 7 7 7 7 6 4 3 3 3 4 6 10 12 11 10 9 9 10 11 8 7 10 11 10 6 4 6 8 11 15 15 12 9 9 8 4 5 6 6 3 4 4 7 12 12 12 12 12 14 14 11 11 8 6 6 10 15 17 17 12 10 15 20 22 24 24 22 21 21 20 20 18 17 16 15 14
6 5 6 6 5 4 6 7 7 7 7 7 7 6 6 5 4 3 3 6 7 7 8 11 13 11 8 8 10 11 9 9 10 9 13 12 10 9 8 7 8 12 13 12 8 8 8 6 5 7 7 4 4 9 11 9 7 9 8 5 9 11 6 4 6 7 7 13 15 15 15 9 8 16 21 22 24 24 22 21 21 19 19 18 17 16 15 15
7 6 6 7 4 4 6 6 7 6 4 6 7 4 4 5 5 5 5 6 9 11 11 10 11 8 6 6 8 6 5 8 8 6 11 9 7 7 7 7 10 12 12 9 7 7 9 8 6 6 5 4 8 10 10 8 7 8 7 5 1 7 8 8 10 10 7 11 10 7 10 11 13 17 18 18 21 22 21 21 20 20 19 17 17 16 15 15
Wind_Direction
313 310 311 316 313 305 302 299 297 296 296 295 285 282 282 279 278 273 270 270 273 277 279 285 287 289 292 294 295 292 289 285 277 271 264 256 246 238 239 242 230 212 210 197 175 187 187 196 202 199 205 203 213 223 203 208 223 217 230 235 227 235 230 196 178 196 65 86 84 118 182 216 164 178 187 168 186 160 141 122 106 97 89 103 119 128 135 144
313 311 309 311 309 304 302 300 299 295 295 299 294 287 282 281 281 278 274 268 270 273 276 284 285 289 294 293 299 298 293 290 287 277 265 257 249 241 238 231 221 210 199 188 191 192 189 196 196 196 205 206 207 208 195 201 216 218 228 231 227 237 215 153 95 60 43 75 62 111 177 232 168 169 171 186 184 163 158 140 135 115 106 113 120 129 137 141
312 312 306 302 303 303 300 300 301 298 294 293 294 293 284 277 279 281 276 269 268 267 274 279 281 289 290 293 301 300 302 300 291 277 261 257 251 240 235 227 216 211 197 188 200 199 199 201 192 199 210 212 202 192 195 196 205 223 233 235 231 246 157 106 53 50 46 56 31 106 177 211 162 162 174 193 179 176 184 149 150 133 125 127 125 134 138 139
308 310 308 300 298 299 298 298 299 301 298 288 285 291 289 280 277 278 271 268 266 263 270 274 278 284 283 295 295 299 320 307 283 240 236 252 251 240 233 225 217 212 196 192 211 211 212 210 198 206 216 221 205 196 208 192 195 218 225 238 237 302 279 184 175 141 77 25 1 112 185 171 155 172 191 199 185 190 193 164 166 146 133 134 134 142 141 145
304 304 307 304 299 298 298 297 296 298 300 295 285 281 288 287 281 278 269 265 262 260 264 268 275 277 280 288 283 300 316 300 237 185 220 247 241 231 226 222 217 211 198 201 218 217 217 215 206 211 222 231 208 200 220 203 207 227 223 246 271 346 239 178 162 154 121 213 244 182 198 143 168 188 201 208 194 184 175 153 144 133 137 138 138 144 144 149
306 303 304 306 305 302 302 302 300 296 297 298 292 285 284 285 283 279 272 264 258 258 253 257 268 271 277 273 268 268 251 267 93 166 236 232 217 202 204 214 212 206 198 209 219 214 217 215 209 212 220 233 217 204 220 207 212 238 222 238 261 260 234 160 153 161 169 215 210 224 241 153 195 188 198 210 138 95 128 120 116 122 134 141 142 144 146 150
308 306 303 305 305 306 306 308 307 297 286 285 289 290 284 283 283 276 274 268 257 253 243 245 249 254 265 259 264 244 244 260 271 269 258 212 198 178 179 203 204 201 197 209 217 212 213 212 210 213 216 228 225 212 220 211 208 234 238 224 230 232 232 189 173 174 187 224 229 255 198 188 207 181 188 193 107 123 128 116 118 115 127 150 146 143 146 149
307 305 302 302 303 305 306 308 307 296 284 277 281 285 282 284 283 274 273 267 259 251 234 228 217 233 251 225 259 251 244 252 250 248 241 216 205 187 195 218 198 196 197 208 213 211 212 212 212 214 220 227 227 220 220 216 208 224 247 242 220 219 225 219 209 198 202 219 212 218 197 184 201 171 177 167 122 135 126 122 131 130 147 160 146 140 145 147
308 305 301 300 302 304 306 306 305 301 293 280 278 286 285 282 279 274 270 262 257 249 231 218 204 214 222 200 255 261 244 238 224 223 234 241 235 224 234 247 210 193 200 209 212 212 213 214 214 216 228 233 231 230 217 214 214 215 230 242 232 215 216 217 214 206 205 206 197 199 194 175 165 176 172 154 136 138 134 133 139 149 158 153 138 137 142 147
307 305 302 299 301 302 303 305 306 308 302 285 273 281 284 282 276 272 268 261 253 246 231 211 202 198 190 216 252 251 233 214 208 238 242 245 238 239 242 227 210 198 204 210 212 213 214 216 216 220 236 245 246 241 216 210 219 209 223 233 232 224 208 206 209 200 201 198 196 201 190 165 164 191 179 142 143 149 147 143 145 149 145 136 132 134 140 148
307 304 301 299 299 298 300 305 307 307 301 288 278 275 276 279 275 270 266 257 247 242 230 209 201 194 187 248 245 234 235 219 211 247 245 239 226 233 226 210 209 206 208 211 213 214 216 219 219 224 234 247 252 247 226 220 231 235 233 233 226 229 212 204 208 198 201 196 194 206 187 158 171 205 195 148 154 161 155 154 154 142 129 131 132 132 139 145
309 305 301 297 297 295 298 307 309 305 293 281 279 275 270 273 273 270 263 252 246 240 227 209 196 192 207 260 239 229 233 209 213 214 220 222 209 214 211 209 212 210 211 213 215 214 218 221 224 230 225 230 239 242 233 220 232 243 233 237 218 218 219 208 208 199 205 195 185 201 194 168 185 204 172 150 159 167 164 164 154 132 125 134 131 132 138 141
309 306 299 294 294 295 300 309 311 304 286 273 277 278 275 273 272 269 258 246 243 237 225 210 196 191 249 258 241 235 239 237 251 242 217 207 212 221 222 218 211 211 216 218 217 214 217 221 227 234 229 231 230 231 251 212 221 234 220 239 218 206 214 205 205 200 203 188 173 198 207 174 191 190 151 149 166 171 171 169 151 131 133 141 134 134 137 138
306 305 299 291 289 293 299 308 310 297 280 276 276 277 277 275 272 265 251 241 237 234 228 212 196 191 250 253 247 241 241 240 245 242 234 228 227 234 234 219 205 208 215 219 222 213 215 219 225 237 231 233 233 212 237 209 209 224 216 230 228 217 203 193 198 198 197 179 170 203 223 175 187 182 157 161 174 175 177 171 153 141 142 139 134 136 136 139
301 301 298 290 286 290 294 302 307 289 276 279 276 273 275 277 275 262 244 236 234 230 218 208 196 207 255 263 259 248 244 241 238 236 231 224 227 231 222 206 198 201 204 209 218 208 207 209 217 233 224 225 242 235 219 215 202 214 218 215 221 234 197 182 191 194 193 176 175 207 230 187 184 173 162 169 178 179 180 175 158 152 150 136 136 141 138 140
295 295 297 291 283 283 286 296 302 287 275 277 276 275 276 276 271 257 244 235 234 221 196 222 226 224 260 274 258 239 236 236 235 231 222 217 219 220 203 190 190 193 193 196 204 198 196 206 215 226 223 215 232 234 212 212 203 206 221 215 207 224 206 176 182 192 194 181 181 207 231 206 173 162 164 174 184 182 183 177 152 147 156 153 152 150 142 141
290 291 294 291 283 280 282 292 298 287 279 279 283 288 284 275 263 252 247 232 227 203 176 219 241 230 250 263 247 235 223 221 224 217 213 209 207 207 190 181 185 183 184 188 192 193 194 205 213 219 226 217 211 221 214 206 204 198 213 222 206 214 215 175 171 188 196 191 185 204 235 231 149 152 167 180 188 185 192 174 138 141 170 164 161 154 146 142
288 289 292 291 288 284 284 290 291 285 282 284 296 304 293 282 265 244 241 210 180 164 206 219 213 230 245 234 232 236 219 209 202 200 201 198 198 200 189 182 182 175 177 185 190 194 191 199 209 209 218 216 205 214 219 209 205 198 202 217 206 208 214 179 168 187 195 196 188 200 232 229 136 151 171 183 189 185 197 165 133 152 175 161 159 151 142 137
287 287 290 290 290 290 289 289 285 284 284 288 312 344 3 2 325 230 222 184 171 182 222 199 191 204 304 219 211 198 183 189 185 191 192 188 190 193 190 185 181 179 183 185 188 193 189 193 207 212 210 209 207 211 220 218 210 204 201 214 211 200 211 189 172 186 189 194 190 198 220 187 139 167 174 183 191 185 192 160 139 160 166 154 151 135 130 129
290 287 291 293 293 290 289 286 282 284 287 290 308 312 267 222 209 206 200 198 200 209 231 194 191 215 286 159 191 184 164 181 188 196 190 183 183 187 188 184 183 189 195 193 185 189 192 200 207 211 211 206 208 212 221 227 223 215 202 212 219 197 209 202 176 178 182 195 193 196 214 179 152 179 171 176 185 191 192 153 139 162 168 162 146 129 126 123
291 289 292 299 296 287 284 284 279 282 288 290 271 251 236 221 232 213 190 207 218 223 239 230 202 227 247 179 171 200 201 199 199 198 188 181 182 185 184 184 188 193 202 199 187 186 196 212 210 209 214 209 210 213 221 230 238 237 211 206 216 200 208 200 164 169 178 200 197 192 213 189 159 175 168 173 180 191 195 155 147 170 180 170 145 137 133 123
290 289 291 299 298 283 278 277 273 280 286 282 251 239 244 268 298 324 250 236 233 228 235 239 232 238 245 240 230 232 218 204 196 192 183 179 184 188 180 183 196 191 196 200 187 187 201 218 213 208 213 213 212 212 221 229 234 242 221 206 213 200 203 181 146 171 185 202 196 188 210 193 154 165 165 176 183 176 182 174 168 173 181 170 144 141 135 128
284 287 289 298 297 279 270 271 272 281 278 256 241 238 243 275 287 286 279 275 259 231 225 229 232 234 237 237 228 221 223 208 194 186 179 181 188 193 183 184 201 194 194 202 195 194 202 213 212 208 211 212 209 208 216 224 221 230 221 209 210 196 204 183 150 180 191 203 203 183 197 189 148 157 166 172 172 157 160 172 166 167 181 174 153 153 146 136
280 284 289 296 296 279 266 268 270 273 264 243 243 241 240 263 279 289 271 267 273 243 222 218 221 226 228 227 216 211 220 216 206 187 179 187 190 193 196 191 199 201 199 203 203 207 208 204 206 206 208 209 208 205 210 214 207 223 226 220 213 200 208 181 151 180 189 207 226 198 190 190 165 172 176 161 156 157 161 165 161 168 180 172 158 160 154 142
276 280 288 295 293 278 266 273 274 262 245 242 250 243 240 250 252 301 283 262 262 239 220 212 213 224 223 218 209 205 215 223 221 195 179 191 193 191 199 196 201 209 201 202 206 213 217 201 198 204 205 206 210 205 203 206 201 215 226 232 229 208 202 172 162 182 186 201 226 220 203 193 181 186 180 166 172 176 171 171 172 169 169 161 151 148 143 141
270 274 288 295 285 266 257 277 279 236 230 237 246 227 213 216 220 276 269 259 255 211 196 195 197 209 206 202 195 192 210 221 219 203 181 191 197 193 196 194 204 215 202 202 208 215 220 202 193 203 204 203 212 207 197 203 212 213 210 225 235 218 201 184 174 184 193 198 202 207 213 195 188 196 182 173 177 174 169 168 173 176 174 165 151 141 137 138
263 272 288 293 272 234 230 267 228 206 232 212 190 176 173 178 224 265 234 243 242 176 168 175 177 184 187 185 179 182 205 196 201 208 189 190 199 200 207 196 195 217 206 199 210 210 215 208 193 202 205 200 208 206 193 201 218 218 189 205 235 233 204 187 180 190 201 200 189 195 218 223 200 193 177 173 176 168 165 161 160 164 159 145 134 131 129 130
261 271 287 286 259 220 224 260 247 224 232 164 164 175 166 177 222 230 228 229 176 150 155 162 163 171 181 178 177 194 209 173 181 202 190 190 197 200 215 207 194 210 206 200 212 195 202 212 195 192 203 200 204 206 195 198 216 223 186 190 222 241 213 189 184 203 203 198 195 194 211 232 211 188 175 178 181 171 163 157 148 137 120 108 112 114 110 113
261 269 285 281 257 227 221 236 237 229 227 182 189 189 181 208 217 213 243 232 155 148 151 151 156 173 180 176 181 202 210 183 177 184 180 190 200 201 217 214 202 206 208 210 215 193 198 214 199 187 204 208 203 208 201 196 215 227 194 183 204 225 221 198 192 206 206 210 209 190 198 223 216 182 177 184 185 173 162 152 144 137 123 110 112 112 108 109
258 266 281 277 250 236 232 238 237 232 223 208 202 191 195 214 213 204 217 218 178 156 143 147 165 177 177 173 184 201 206 198 179 171 176 187 196 204 216 217 212 209 210 211 217 216 199 196 197 197 212 215 203 207 204 195 213 228 200 180 200 210 212 213 212 213 212 218 213 196 199 217 218 172 176 197 185 167 156 148 142 135 128 122 118 117 114 109
255 262 273 267 234 219 237 247 235 221 213 209 199 199 206 206 223 213 186 190 185 151 142 159 171 175 178 177 184 194 201 205 178 167 176 183 188 201 207 211 215 208 208 206 214 225 202 180 198 210 215 217 206 204 201 195 210 222 203 189 199 196 202 212 218 222 225 220 209 205 206 210 221 203 187 192 173 159 152 149 146 136 130 129 121 116 113 109
253 262 271 259 218 202 219 223 176 184 196 199 194 199 205 196 225 229 185 170 184 164 165 174 169 170 180 184 183 186 197 204 177 169 179 181 183 196 199 201 201 196 204 200 202 219 211 192 198 205 210 214 209 201 195 194 209 214 198 198 200 186 193 203 202 210 226 223 205 209 211 207 224 207 158 145 139 144 142 143 144 136 131 127 119 115 111 110
254 266 273 252 211 204 219 215 167 185 187 186 198 202 212 208 209 223 208 175 168 166 173 170 167 173 180 187 185 183 195 197 175 175 183 183 184 191 201 205 200 200 204 197 196 205 210 203 198 200 204 207 210 206 191 188 203 208 197 198 203 193 189 197 200 200 214 223 210 210 213 195 140 97 124 122 112 114 121 134 139 132 127 122 116 112 105 104
258 265 266 241 211 208 215 214 205 204 190 194 209 202 215 229 211 215 211 173 144 158 197 177 168 176 183 192 185 178 195 193 174 180 183 183 189 187 198 205 201 205 206 196 199 199 201 201 198 202 193 193 211 213 194 192 198 201 203 206 211 207 194 194 200 199 200 210 210 210 211 180 139 106 105 115 109 102 103 119 124 119 119 115 110 106 101 101
261 260 251 229 222 217 212 210 205 204 201 207 214 203 212 222 206 199 193 152 151 164 201 191 174 179 184 195 185 177 197 195 175 186 188 185 194 186 191 202 198 202 205 196 199 199 206 206 193 199 193 188 210 213 194 196 199 195 207 217 217 213 201 193 213 226 205 201 204 204 193 88 118 113 112 122 117 113 113 119 121 117 118 114 106 104 102 99
258 252 241 228 228 221 211 206 198 197 203 208 212 214 217 223 218 201 181 16 151 154 179 187 187 189 179 189 186 178 197 204 180 189 194 189 197 191 190 199 197 201 205 197 195 192 203 207 184 187 196 194 201 208 199 199 199 190 206 218 217 219 215 198 211 249 226 208 200 181 117 96 127 130 138 141 129 127 128 128 129 123 119 113 105 106 105 101
236 230 231 229 225 215 204 200 194 193 204 215 220 223 223 225 228 220 339 279 166 158 196 190 195 199 179 186 190 177 191 202 186 190 196 191 196 194 193 195 196 203 207 202 201 194 200 207 179 178 194 194 191 205 211 207 206 198 203 212 214 221 224 212 205 207 211 214 204 186 157 144 165 162 157 158 145 138 136 133 132 125 117 111 108 109 108 105
219 226 234 231 214 195 191 192 190 192 204 222 229 236 240 236 229 176 122 246 214 200 221 195 203 213 189 185 188 179 186 194 186 189 195 193 193 193 194 194 193 199 206 205 201 200 208 209 178 180 191 188 185 202 213 206 211 216 206 204 216 220 213 209 215 206 204 209 204 190 170 166 192 175 165 172 158 144 141 138 136 128 119 114 114 113 109 106
206 218 227 216 189 178 179 180 185 194 208 223 224 231 234 245 258 245 168 236 260 235 205 127 215 228 207 197 187 179 185 189 185 190 197 193 187 191 194 192 189 193 202 207 199 196 215 218 182 181 188 185 180 198 208 197 205 221 215 202 217 231 212 206 217 211 207 206 200 196 188 192 206 177 170 174 160 149 148 144 140 129 122 121 120 117 111 105
200 210 202 179 170 168 168 171 185 198 213 224 223 228 221 223 247 239 184 203 270 259 184 171 212 219 231 236 209 183 187 194 191 193 196 189 181 190 195 189 185 191 200 206 197 184 210 221 194 181 185 189 187 196 206 196 192 210 216 202 205 218 212 213 216 211 216 211 197 202 200 186 170 166 167 166 155 149 150 145 136 128 123 121 118 114 109 105
204 216 181 171 169 162 163 173 194 206 217 226 225 232 235 239 254 241 201 205 262 273 255 235 239 225 335 260 224 190 188 196 197 194 189 192 188 191 198 191 184 191 198 203 196 184 204 213 194 187 191 198 198 194 201 204 197 200 211 208 206 207 206 212 213 210 219 217 206 207 195 128 34 163 159 156 152 149 148 141 129 124 121 117 114 112 109 107
218 225 152 164 169 166 172 183 205 212 219 227 226 225 227 251 272 252 217 208 227 234 208 218 251 252 246 264 245 209 199 196 198 193 182 192 190 182 202 198 190 190 194 201 197 186 200 215 194 197 206 203 196 191 200 210 205 199 207 216 209 204 209 214 207 205 216 218 217 213 186 120 13 173 148 147 145 141 140 134 124 121 117 113 113 112 111 109
216 181 126 158 172 177 189 204 202 210 223 229 233 229 220 223 239 241 229 219 219 216 212 229 243 241 244 258 265 240 223 207 197 189 180 193 191 184 207 207 195 192 193 199 196 180 183 224 206 199 209 207 198 193 201 211 209 202 207 218 216 205 210 222 218 207 212 220 221 210 173 147 147 126 123 126 128 130 133 131 124 120 118 118 120 118 115 112
182 133 118 158 175 184 204 222 196 204 220 225 227 227 230 235 229 229 229 219 216 208 223 261 250 234 250 258 262 252 239 223 203 188 185 198 189 176 195 201 195 196 195 191 186 172 177 216 212 196 197 202 199 195 197 204 211 209 202 211 221 212 205 219 230 215 218 229 224 211 156 147 150 131 125 124 126 129 132 130 124 123 126 127 125 122 118 115
167 128 126 156 177 197 227 254 251 233 220 218 225 228 235 237 225 230 242 238 233 228 230 253 242 246 264 268 272 265 244 231 211 193 189 189 162 166 189 193 198 206 198 189 190 181 182 212 213 203 201 196 193 195 194 195 204 213 205 203 214 217 209 209 219 211 215 230 223 202 138 129 139 147 141 134 133 135 133 129 126 127 131 129 125 122 119 114
240 154 139 158 183 213 238 254 266 267 230 210 218 230 232 230 213 212 232 244 240 247 275 264 249 265 271 263 268 264 242 227 213 204 195 175 155 186 192 194 208 208 178 176 196 193 193 213 210 215 227 214 203 204 199 193 197 209 209 201 204 216 212 205 215 213 201 224 229 179 139 138 152 162 154 143 141 140 135 130 129 131 132 128 125 122 116 110
247 196 163 164 187 214 233 239 237 247 239 211 208 216 220 226 212 183 197 234 258 303 277 257 242 254 262 260 269 263 239 221 202 200 195 168 160 177 178 190 210 197 138 170 198 197 208 207 187 215 252 261 287 244 210 199 198 205 211 206 202 206 206 205 215 207 193 219 225 154 141 146 162 163 151 144 143 140 135 133 133 133 132 128 125 122 116 111
238 232 185 176 189 204 210 220 219 223 231 222 217 215 213 219 214 187 179 243 333 301 254 248 243 244 249 258 270 260 237 218 194 190 188 171 169 164 164 191 205 184 168 195 194 195 223 201 158 211 229 227 294 277 225 203 198 201 210 213 207 202 203 207 210 209 213 219 169 150 148 150 155 149 139 140 141 135 133 134 134 135 133 130 128 124 119 114
254 283 230 198 216 211 197 209 215 215 220 223 225 222 224 226 211 186 152 346 313 265 245 253 254 249 250 251 249 244 236 218 192 191 188 173 179 184 176 193 197 184 190 202 190 195 223 190 146 197 211 209 242 276 250 219 205 203 209 214 212 206 206 208 200 202 216 161 137 143 137 130 138 137 132 136 134 128 128 131 134 137 135 133 131 125 121 118
301 330 320 246 233 220 206 207 207 211 209 210 224 222 221 233 212 164 152 200 244 260 246 251 256 255 258 257 247 240 240 245 232 201 174 151 158 206 204 194 189 182 190 202 185 184 211 181 145 188 188 179 212 218 229 224 203 191 197 205 209 209 210 203 174 104 86 118 128 129 120 111 126 131 129 132 130 127 130 135 137 138 137 135 132 127 124 119
311 319 307 269 238 210 210 201 200 215 203 192 216 220 200 205 199 170 200 215 230 249 252 258 261 255 252 250 238 231 240 274 270 210 172 165 175 200 211 198 185 179 187 200 182 173 203 185 154 199 191 159 216 208 194 195 176 147 140 166 197 189 172 144 115 81 104 133 133 129 128 129 129 123 125 131 131 131 135 137 138 138 139 137 133 129 126 121
319 315 297 279 261 210 210 202 197 210 207 194 201 195 182 190 181 186 214 222 238 252 260 269 266 246 226 219 223 233 257 275 270 192 168 178 175 184 211 213 201 189 184 191 180 176 203 190 165 199 187 167 218 202 161 160 178 149 106 36 45 147 129 96 73 54 87 141 150 141 134 137 134 128 129 134 134 133 136 138 139 140 140 137 132 129 126 121